Weather History for KAUH - March, 2014

Change the Weather History Date:

Wednesday, March 26, 2014

  Actual Average Record
Temperature  
Mean Temperature 46 °F -  
Max Temperature 64 °F 54 °F 82 °F (1976)
Min Temperature 29 °F 31 °F -2 °F (1965)
Degree Days  
Heating Degree Days 18    
Moisture  
Dew Point 28 °F    
Average Humidity 56    
Maximum Humidity 97    
Minimum Humidity 31    
Precipitation  
Precipitation 0.00 in - - ()
Sea Level Pressure  
Sea Level Pressure 29.70 in    
Wind  
Wind Speed 20 mph (South)    
Max Wind Speed 38 mph    
Max Gust Speed 50 mph    
Visibility 8 miles    
Events      
Averages and records for this station are not official NWS values.
T = Trace of Precipitation, MM = Missing Value Source: NWS Daily Summary

Daily Weather History Graph

Daily Weather History Graph

Search for Another Location

Airport or City:

Trip Planner

Search our weather history database for the weather conditions in past years. The results will help you decide how hot, cold, wet, or windy it might be!

Date:

Astronomy

Mar. 26, 2014 Rise Set
Actual Time 7:25 AM CDT 7:50 PM CDT
Civil Twilight 6:57 AM CDT 8:18 PM CDT
Nautical Twilight 6:25 AM CDT 8:50 PM CDT
Astronomical Twilight 5:52 AM CDT 9:23 PM CDT
Moon 4:36 AM CDT (3/26) 3:29 PM CDT (3/26)
Length of Visible Light 13h 20m
Length of Day
12h 25m
Waning Crescent, 21% of the Moon is Illuminated
Mar 26
Waning Crescent
Mar 30
New
Apr 7
First Quarter
Apr 15
Full
Apr 22
Last Quarter

Hourly Weather History & Observations

Time (CDT) Temp. Windchill Dew Point Humidity Pressure Visibility Wind Dir Wind Speed Gust Speed Precip Events Conditions
12:15 AM 29.3 °F 19.6 °F 10.4 °F 45% 30.05 in 10.0 mi SSE 11.5 mph - N/A   Clear
12:35 AM 30.4 °F 20.5 °F 11.1 °F 45% 30.04 in 10.0 mi SSE 12.7 mph - N/A   Clear
12:55 AM 30.7 °F 20.9 °F 11.8 °F 46% 30.05 in 10.0 mi SSE 12.7 mph - N/A   Clear
1:15 AM 31.1 °F 20.9 °F 12.7 °F 47% 30.03 in 10.0 mi South 13.8 mph - N/A   Clear
1:35 AM 30.9 °F 20.2 °F 13.1 °F 48% 30.03 in 10.0 mi South 15.0 mph - N/A   Clear
1:55 AM 30.9 °F 20.7 °F 13.3 °F 48% 30.01 in 10.0 mi South 13.8 mph 20.7 mph N/A   Clear
2:15 AM 31.1 °F 20.5 °F 13.8 °F 49% 30.01 in 10.0 mi SSE 15.0 mph - N/A   Clear
2:35 AM 30.9 °F 20.7 °F 14.0 °F 50% 29.99 in 10.0 mi SSE 13.8 mph 21.9 mph N/A   Clear
2:55 AM 30.6 °F 19.0 °F 14.0 °F 50% 29.98 in 10.0 mi SSE 17.3 mph 20.7 mph N/A   Clear
3:15 AM 29.8 °F 18.4 °F 14.2 °F 52% 29.96 in 10.0 mi SSE 16.1 mph - N/A   Clear
3:35 AM 29.3 °F 18.2 °F 14.5 °F 54% 29.94 in 10.0 mi SSE 15.0 mph 20.7 mph N/A   Clear
3:55 AM 29.5 °F 17.2 °F 15.3 °F 55% 29.92 in 10.0 mi SSE 18.4 mph 25.3 mph N/A   Clear
4:15 AM 29.7 °F 17.4 °F 15.6 °F 56% 29.91 in 10.0 mi SSE 18.4 mph 23.0 mph N/A   Clear
4:35 AM 29.7 °F 18.2 °F 15.8 °F 56% 29.89 in 10.0 mi SSE 16.1 mph 25.3 mph N/A   Clear
4:55 AM 29.3 °F 17.3 °F 16.2 °F 58% 29.88 in 10.0 mi SSE 17.3 mph 24.2 mph N/A   Clear
5:15 AM 30.2 °F 18.5 °F 16.5 °F 57% 29.87 in 10.0 mi SSE 17.3 mph - N/A   Clear
5:35 AM 30.7 °F 19.2 °F 16.5 °F 56% 29.86 in 10.0 mi South 17.3 mph 24.2 mph N/A   Clear
5:55 AM 31.1 °F 18.9 °F 16.7 °F 55% 29.85 in 10.0 mi South 19.6 mph 25.3 mph N/A   Clear
6:15 AM 32.0 °F 20.8 °F 17.4 °F 55% 29.84 in 10.0 mi South 17.3 mph 26.5 mph N/A   Clear
6:35 AM 31.8 °F 19.6 °F 17.6 °F 56% 29.84 in 10.0 mi South 20.7 mph 27.6 mph N/A   Clear
6:55 AM 31.3 °F 19.5 °F 17.6 °F 57% 29.83 in 10.0 mi SSE 18.4 mph 26.5 mph N/A   Clear
7:15 AM 30.9 °F 19.8 °F 18.1 °F 59% 29.82 in 10.0 mi SSE 16.1 mph 24.2 mph N/A   Clear
7:35 AM 30.7 °F 19.6 °F 18.5 °F 60% 29.82 in 10.0 mi SSE 16.1 mph 23.0 mph N/A   Clear
7:55 AM 30.7 °F 20.0 °F 18.9 °F 61% 29.81 in 10.0 mi SSE 15.0 mph 20.7 mph N/A   Clear
8:15 AM 31.5 °F 19.8 °F 19.4 °F 61% 29.80 in 10.0 mi South 18.4 mph 24.2 mph N/A   Clear
8:35 AM 32.4 °F 21.3 °F 20.3 °F 61% 29.79 in 10.0 mi SSE 17.3 mph 25.3 mph N/A   Clear
8:55 AM 34.7 °F 22.8 °F 21.6 °F 59% 29.78 in 10.0 mi South 23.0 mph 29.9 mph N/A   Clear
9:15 AM 37.0 °F 26.4 °F 22.1 °F 55% 29.77 in 10.0 mi South 20.7 mph 27.6 mph N/A   Clear
9:35 AM 39.6 °F 29.2 °F 23.0 °F 52% 29.76 in 10.0 mi South 23.0 mph 29.9 mph N/A   Clear
9:55 AM 42.1 °F 32.1 °F 23.7 °F 48% 29.75 in 10.0 mi South 25.3 mph 32.2 mph N/A   Clear
10:15 AM 44.2 °F 35.7 °F 24.4 °F 46% 29.74 in 10.0 mi South 21.9 mph 33.4 mph N/A   Clear
10:35 AM 47.7 °F - 25.3 °F 42% 29.73 in 10.0 mi South 26.5 mph 36.8 mph N/A   Clear
10:55 AM 48.4 °F - 25.7 °F 41% 29.72 in 10.0 mi SSW 29.9 mph 38.0 mph N/A   Clear
11:15 AM 50.2 °F - 26.6 °F 40% 29.71 in 10.0 mi South 23.0 mph 38.0 mph N/A   Clear
11:35 AM 52.3 °F - 27.3 °F 38% 29.69 in 7.0 mi South 27.6 mph 39.1 mph N/A   Clear
11:55 AM 54.1 °F - 27.7 °F 36% 29.68 in 7.0 mi South 27.6 mph 39.1 mph N/A   Clear
12:15 PM 55.2 °F - 28.2 °F 36% 29.66 in 10.0 mi SSW 27.6 mph 38.0 mph N/A   Clear
12:35 PM 57.7 °F - 29.1 °F 34% 29.65 in 7.0 mi South 31.1 mph 42.6 mph N/A   Clear
12:55 PM 59.2 °F - 29.7 °F 33% 29.63 in 10.0 mi South 27.6 mph 39.1 mph N/A   Clear
1:15 PM 60.8 °F - 30.2 °F 31% 29.62 in 7.0 mi SSW 33.4 mph 43.7 mph N/A   Clear
1:35 PM 61.5 °F - 31.1 °F 32% 29.60 in 10.0 mi South 27.6 mph 40.3 mph N/A   Clear
1:55 PM 62.8 °F - 32.0 °F 32% 29.59 in 7.0 mi SSW 29.9 mph 38.0 mph N/A   Clear
2:15 PM 64.0 °F - 32.9 °F 31% 29.57 in 5.0 mi South 28.8 mph 41.4 mph N/A   Haze
2:35 PM 64.6 °F - 33.4 °F 31% 29.56 in 5.0 mi South 33.4 mph 48.3 mph N/A   Haze
2:55 PM 64.0 °F - 33.6 °F 32% 29.55 in 5.0 mi South 32.2 mph 42.6 mph N/A   Haze
3:15 PM 64.2 °F - 33.8 °F 32% 29.55 in 5.0 mi South 27.6 mph 41.4 mph N/A   Haze
3:35 PM 62.8 °F - 33.8 °F 34% 29.54 in 5.0 mi South 33.4 mph 42.6 mph N/A   Haze
3:55 PM 62.1 °F - 35.6 °F 37% 29.54 in 5.0 mi South 29.9 mph 43.7 mph N/A   Haze
4:15 PM 60.8 °F - 37.0 °F 41% 29.53 in 4.0 mi South 34.5 mph 46.0 mph N/A   Haze
4:35 PM 59.5 °F - 38.3 °F 45% 29.52 in 4.0 mi South 38.0 mph 49.5 mph N/A   Haze
4:55 PM 57.2 °F - 38.8 °F 50% 29.51 in 5.0 mi South 35.7 mph 43.7 mph N/A   Haze
5:15 PM 55.9 °F - 39.4 °F 54% 29.52 in 5.0 mi South 36.8 mph 46.0 mph N/A   Haze
5:35 PM 54.7 °F - 39.7 °F 57% 29.52 in 7.0 mi South 32.2 mph 42.6 mph N/A   Mostly Cloudy
5:55 PM 51.3 °F - 39.7 °F 65% 29.53 in 10.0 mi South 32.2 mph 43.7 mph N/A   Overcast
6:15 PM 49.6 °F - 40.1 °F 70% 29.52 in 10.0 mi South 33.4 mph 43.7 mph N/A   Overcast
6:35 PM 49.1 °F - 40.3 °F 72% 29.53 in 10.0 mi South 29.9 mph 38.0 mph N/A   Overcast
6:55 PM 48.2 °F - 40.3 °F 74% 29.53 in 10.0 mi South 29.9 mph 39.1 mph N/A   Overcast
7:15 PM 47.8 °F - 40.3 °F 75% 29.53 in 10.0 mi South 26.5 mph 33.4 mph N/A   Overcast
7:35 PM 47.3 °F - 40.3 °F 77% 29.52 in 10.0 mi South 21.9 mph 34.5 mph N/A   Overcast
7:55 PM 46.9 °F - 40.5 °F 78% 29.52 in 10.0 mi South 23.0 mph 33.4 mph N/A   Overcast
8:15 PM 46.8 °F - 40.5 °F 79% 29.52 in 10.0 mi South 19.6 mph 33.4 mph N/A   Overcast
8:55 PM 46.0 °F 37.6 °F 40.5 °F 81% 29.51 in 10.0 mi South 24.2 mph 33.4 mph N/A   Overcast
9:15 PM 45.7 °F 36.6 °F 41.0 °F 84% 29.51 in 10.0 mi South 27.6 mph 34.5 mph N/A   Overcast
9:35 PM 45.0 °F 36.2 °F 41.7 °F 88% 29.51 in 7.0 mi South 24.2 mph 34.5 mph N/A   Overcast
9:55 PM 44.4 °F 35.1 °F 41.9 °F 91% 29.51 in 5.0 mi South 26.5 mph 33.4 mph N/A   Overcast
10:15 PM 43.9 °F 35.2 °F 42.1 °F 93% 29.51 in 4.0 mi South 21.9 mph 29.9 mph N/A   Overcast
10:35 PM 43.7 °F 34.7 °F 41.9 °F 93% 29.50 in 5.0 mi South 23.0 mph 31.1 mph N/A   Overcast
10:55 PM 43.0 °F 33.5 °F 41.5 °F 95% 29.49 in 4.0 mi South 24.2 mph 33.4 mph N/A   Overcast
11:15 PM 42.8 °F 33.8 °F 41.5 °F 95% 29.49 in 4.0 mi South 21.9 mph 27.6 mph N/A   Overcast
11:35 PM 42.8 °F 33.5 °F 41.9 °F 97% 29.48 in 3.0 mi South 23.0 mph 29.9 mph N/A   Overcast
11:55 PM 42.8 °F 34.0 °F 41.9 °F 97% 29.47 in 3.0 mi South 20.7 mph 29.9 mph N/A   Overcast